Columbia Falls, MT

2:35 AM MST on February 06, 2016 (GMT -0700)
Glacier Park International

Weather History for KGPI - April, 2013

Change the Weather History Date:

Tuesday, April 9, 2013

  Actual Average Record
Temperature  
Mean Temperature 33 °F 42 °F  
Max Temperature 45 °F 54 °F 71 °F (1925)
Min Temperature 20 °F 30 °F 18 °F (1988)
Degree Days  
Heating Degree Days 32 23  
Month to date heating degree days 200 213  
Since 1 July heating degree days 6380 6984  
Cooling Degree Days 0 0  
Month to date cooling degree days 0 0  
Year to date cooling degree days 0 0  
Moisture  
Dew Point 18 °F    
Average Humidity 61    
Maximum Humidity 85    
Minimum Humidity 37    
Precipitation  
Precipitation 0.00 in 0.04 in 0.33 in (1991)
Month to date precipitation 0.34 0.35  
Year to date precipitation 2.29 3.74  
Snow  
Snow 0.00 in - - ()
Month to date snowfall T  
Year to date snowfall 8.3  
Since 1 July snowfall 17.1  
Snow Depth 0.00 in    
Sea Level Pressure  
Sea Level Pressure 30.35 in    
Wind  
Wind Speed 4 mph (NE)    
Max Wind Speed 13 mph    
Max Gust Speed 18 mph    
Visibility 10 miles    
Events      
T = Trace of Precipitation, MM = Missing Value Source: NWS Daily Summary

Daily Weather History Graph

Daily Weather History Graph

Search for Another Location

Airport or City:

Trip Planner

Search our weather history database for the weather conditions in past years. The results will help you decide how hot, cold, wet, or windy it might be!

Date:

Astronomy

Apr. 09, 2013 Rise Set
Actual Time 6:58 AM MDT 8:19 PM MDT
Civil Twilight 6:25 AM MDT 8:52 PM MDT
Nautical Twilight 5:46 AM MDT 9:31 PM MDT
Astronomical Twilight 5:04 AM MDT 10:13 PM MDT
Moon 6:24 AM MDT (4/9) 8:00 PM MDT (4/9)
Length of Visible Light 14h 26m
Length of Day
13h 21m
Waning Crescent, 0% of the Moon is Illuminated
Apr 9
Waning Crescent
Apr 10
New
Apr 18
First Quarter
Apr 25
Full
May 2
Last Quarter

Hourly Weather History & Observations

Time (MDT) Temp. Windchill Dew Point Humidity Pressure Visibility Wind Dir Wind Speed Gust Speed Precip Events Conditions
12:55 AM 25.0 °F 18.1 °F 14.0 °F 63% 30.32 in 10.0 mi NNE 5.8 mph - N/A   Partly Cloudy
1:55 AM 25.0 °F 18.1 °F 12.9 °F 60% 30.34 in 10.0 mi North 5.8 mph - N/A   Clear
2:55 AM 25.0 °F 14.8 °F 12.9 °F 60% 30.35 in 10.0 mi NNE 10.4 mph - N/A   Clear
3:55 AM 24.1 °F 18.2 °F 12.9 °F 62% 30.35 in 10.0 mi NE 4.6 mph - N/A   Clear
4:55 AM 21.0 °F 12.4 °F 14.0 °F 74% 30.37 in 10.0 mi NE 6.9 mph - N/A   Clear
5:55 AM 24.1 °F 18.2 °F 16.0 °F 71% 30.39 in 10.0 mi NNE 4.6 mph - N/A   Overcast
6:55 AM 23.0 °F - 16.0 °F 74% 30.40 in 10.0 mi Calm Calm - N/A   Mostly Cloudy
7:55 AM 24.1 °F - 16.0 °F 71% 30.43 in 10.0 mi Calm Calm - N/A   Clear
8:55 AM 28.9 °F 23.9 °F 16.0 °F 58% 30.44 in 10.0 mi North 4.6 mph - N/A   Partly Cloudy
9:55 AM 30.0 °F 22.4 °F 14.0 °F 51% 30.45 in 10.0 mi NNE 8.1 mph - N/A   Overcast
10:55 AM 34.0 °F 31.0 °F 15.1 °F 46% 30.45 in 10.0 mi NNW 3.5 mph - N/A   Overcast
11:55 AM 35.1 °F - 15.1 °F 44% 30.43 in 10.0 mi Calm Calm - N/A   Scattered Clouds
12:55 PM 37.0 °F 34.5 °F 16.0 °F 42% 30.40 in 10.0 mi East 3.5 mph - N/A   Clear
1:55 PM 39.9 °F 37.8 °F 18.0 °F 41% 30.38 in 10.0 mi Variable 3.5 mph - N/A   Clear
2:55 PM 44.1 °F 40.8 °F 19.9 °F 38% 30.36 in 10.0 mi Variable 5.8 mph - N/A   Clear
3:55 PM 42.1 °F 38.4 °F 21.0 °F 43% 30.33 in 10.0 mi ESE 5.8 mph - N/A   Overcast
4:55 PM 44.1 °F 41.5 °F 23.0 °F 43% 30.32 in 10.0 mi South 4.6 mph - N/A   Overcast
5:55 PM 43.0 °F 40.3 °F 23.0 °F 45% 30.31 in 10.0 mi South 4.6 mph - N/A   Overcast
6:55 PM 43.0 °F 38.8 °F 24.1 °F 47% 30.30 in 10.0 mi Variable 6.9 mph - N/A   Overcast
7:55 PM 41.0 °F 37.1 °F 24.1 °F 51% 30.29 in 10.0 mi South 5.8 mph - N/A   Overcast
8:55 PM 37.9 °F - 25.0 °F 60% 30.28 in 10.0 mi Calm Calm - N/A   Overcast
9:55 PM 36.0 °F - 24.1 °F 62% 30.29 in 10.0 mi Calm Calm - N/A   Mostly Cloudy
10:55 PM 33.1 °F - 25.0 °F 72% 30.27 in 10.0 mi Calm Calm - N/A   Scattered Clouds
11:55 PM 28.9 °F - 24.1 °F 82% 30.27 in 10.0 mi Calm Calm - N/A   Scattered Clouds